TimeAKST,TemperatureF,Dew PointF,Humidity,Sea Level PressureIn,VisibilityMPH,Wind Direction,Wind SpeedMPH,Gust SpeedMPH,PrecipitationIn,Events,Conditions,WindDirDegrees,DateUTC
12:07 AM,35.6,35.6,100,29.38,2.5,East,10.4,18.4,0.02,Rain,Light Rain,100,2013-12-23 09:07:00
12:16 AM,35.6,35.6,100,29.38,3.0,East,10.4,18.4,0.03,Snow,Light Snow,100,2013-12-23 09:16:00
12:23 AM,35.6,35.6,100,29.38,2.5,East,10.4,18.4,0.04,Rain,Light Rain,100,2013-12-23 09:23:00
12:32 AM,35.6,35.6,100,29.38,4.0,East,8.1,-,0.06,Rain,Light Rain,100,2013-12-23 09:32:00
12:50 AM,35.6,35.6,100,29.38,4.0,ESE,8.1,-,0.09,Rain,Light Rain,110,2013-12-23 09:50:00
12:53 AM,36.0,35.1,97,29.39,4.0,East,8.1,-,0.09,Rain,Light Rain,100,2013-12-23 09:53:00
1:14 AM,35.6,35.6,100,29.39,2.5,East,4.6,-,0.03,Rain,Light Rain,100,2013-12-23 10:14:00
1:41 AM,35.6,35.6,100,29.40,1.5,East,8.1,-,0.07,Rain,Light Rain,100,2013-12-23 10:41:00
1:53 AM,36.0,36.0,100,29.40,3.0,East,8.1,-,0.09,Rain,Light Rain,100,2013-12-23 10:53:00
2:53 AM,36.0,36.0,100,29.43,3.0,Variable,3.5,-,0.02,Rain,Light Rain,0,2013-12-23 11:53:00
3:10 AM,41.0,39.2,93,29.43,7.0,SSW,11.5,17.3,0.01,,Overcast,210,2013-12-23 12:10:00
3:17 AM,41.0,39.2,93,29.43,3.0,SSW,10.4,17.3,0.01,Rain,Light Rain,210,2013-12-23 12:17:00
3:30 AM,41.0,39.2,93,29.44,2.5,SSW,16.1,21.9,0.01,Rain,Light Rain,210,2013-12-23 12:30:00
3:45 AM,41.0,39.2,93,29.44,4.0,SSW,11.5,-,0.02,Rain,Light Rain,210,2013-12-23 12:45:00
3:53 AM,41.0,39.9,96,29.45,8.0,SSW,11.5,-,0.02,,Overcast,200,2013-12-23 12:53:00
4:22 AM,41.0,39.2,93,29.45,5.0,SSW,12.7,21.9,0.00,Rain,Light Rain,200,2013-12-23 13:22:00
4:43 AM,41.0,39.2,93,29.46,2.5,SSW,15.0,24.2,0.01,Rain,Light Rain,210,2013-12-23 13:43:00
4:48 AM,41.0,39.2,93,29.46,4.0,SSW,17.3,25.3,0.01,Rain,Light Rain,210,2013-12-23 13:48:00
4:53 AM,41.0,39.9,96,29.47,5.0,SSW,13.8,25.3,0.01,Rain,Light Rain,210,2013-12-23 13:53:00
5:15 AM,41.0,39.2,93,29.46,8.0,SSW,16.1,23.0,N/A,,Overcast,210,2013-12-23 14:15:00
5:31 AM,41.0,39.2,93,29.47,2.0,SSW,17.3,23.0,0.00,Rain,Light Rain,210,2013-12-23 14:31:00
5:41 AM,41.0,39.2,93,29.47,9.0,SSW,16.1,24.2,0.00,Rain,Light Rain,210,2013-12-23 14:41:00
5:53 AM,41.0,39.9,96,29.48,10.0,SSW,16.1,25.3,0.00,Rain,Light Rain,210,2013-12-23 14:53:00
6:24 AM,41.0,39.2,93,29.49,10.0,SSW,17.3,23.0,0.00,,Overcast,210,2013-12-23 15:24:00
6:53 AM,41.0,37.9,89,29.51,10.0,SW,20.7,31.1,0.00,,Overcast,230,2013-12-23 15:53:00
7:04 AM,39.2,37.4,93,29.51,10.0,SW,15.0,28.8,N/A,,Overcast,230,2013-12-23 16:04:00
7:53 AM,39.0,37.9,96,29.55,9.0,WSW,12.7,-,N/A,,Overcast,240,2013-12-23 16:53:00
8:19 AM,39.2,37.4,93,29.57,5.0,WSW,12.7,-,0.00,Rain,Light Rain,240,2013-12-23 17:19:00
8:38 AM,39.2,39.2,100,29.58,8.0,WSW,11.5,16.1,0.00,,Overcast,240,2013-12-23 17:38:00
8:53 AM,39.0,37.9,96,29.59,7.0,WSW,11.5,-,0.00,,Overcast,250,2013-12-23 17:53:00
9:02 AM,39.2,37.4,93,29.59,4.0,WSW,17.3,24.2,0.01,Rain,Light Rain,250,2013-12-23 18:02:00
9:53 AM,37.0,36.0,96,29.63,4.0,WSW,19.6,31.1,0.05,Rain,Light Rain,250,2013-12-23 18:53:00
10:30 AM,37.4,33.8,87,29.65,10.0,West,13.8,20.7,0.01,Rain,Light Rain,260,2013-12-23 19:30:00
10:53 AM,37.9,32.0,79,29.67,10.0,SW,16.1,24.2,0.01,Rain,Light Rain,230,2013-12-23 19:53:00
11:53 AM,37.9,30.0,73,29.69,10.0,SSW,16.1,25.3,0.00,,Mostly Cloudy,210,2013-12-23 20:53:00
12:53 PM,37.9,32.0,79,29.71,10.0,WSW,18.4,24.2,N/A,,Mostly Cloudy,240,2013-12-23 21:53:00
1:36 PM,35.6,33.8,93,29.73,4.0,SW,5.8,-,0.00,Rain,Light Rain,230,2013-12-23 22:36:00
1:46 PM,35.6,33.8,93,29.74,2.5,WSW,3.5,-,0.02,Snow,Light Snow,240,2013-12-23 22:46:00
1:48 PM,35.6,33.8,93,29.74,4.0,SW,3.5,-,0.02,Snow,Light Snow,230,2013-12-23 22:48:00
1:53 PM,35.1,33.1,92,29.74,8.0,Calm,Calm,-,0.03,Snow,Light Snow,0,2013-12-23 22:53:00
2:05 PM,35.6,33.8,93,29.74,9.0,Calm,Calm,-,0.00,,Overcast,0,2013-12-23 23:05:00
2:19 PM,35.6,33.8,93,29.75,2.5,SSE,3.5,-,0.00,Snow,Light Snow,150,2013-12-23 23:19:00
2:31 PM,33.8,33.8,100,29.76,5.0,WSW,6.9,-,0.02,Rain,Light Rain,240,2013-12-23 23:31:00
2:47 PM,33.8,32.0,93,29.78,1.8,West,15.0,21.9,0.02,Snow,Light Snow,260,2013-12-23 23:47:00
2:53 PM,34.0,30.9,89,29.79,1.8,WSW,10.4,21.9,0.02,Snow,Light Snow,250,2013-12-23 23:53:00
2:57 PM,33.8,30.2,87,29.79,3.0,WSW,10.4,-,0.00,Snow,Light Snow,250,2013-12-23 23:57:00
3:00 PM,33.8,30.2,87,29.79,1.8,West,11.5,-,0.00,Snow,Light Snow,260,2013-12-24 00:00:00
3:08 PM,33.8,32.0,93,29.79,1.0,WSW,6.9,-,0.01,Snow,Light Snow,240,2013-12-24 00:08:00
3:12 PM,33.8,32.0,93,29.80,2.0,Calm,Calm,-,0.01,Snow,Light Snow,0,2013-12-24 00:12:00
3:35 PM,33.8,30.2,87,29.81,3.0,Calm,Calm,-,0.01,Snow,Light Snow,0,2013-12-24 00:35:00
3:53 PM,34.0,32.0,92,29.82,7.0,Calm,Calm,-,0.02,Snow,Light Snow,0,2013-12-24 00:53:00
4:53 PM,34.0,28.0,79,29.86,10.0,WNW,3.5,-,0.00,,Overcast,290,2013-12-24 01:53:00
5:53 PM,33.1,26.1,75,29.89,10.0,Calm,Calm,-,N/A,,Overcast,0,2013-12-24 02:53:00
6:53 PM,33.1,25.0,72,29.92,10.0,Calm,Calm,-,N/A,,Overcast,0,2013-12-24 03:53:00
7:53 PM,33.1,26.1,75,29.97,6.0,Calm,Calm,-,0.00,Snow,Light Snow,0,2013-12-24 04:53:00
8:53 PM,32.0,28.0,85,29.99,10.0,Calm,Calm,-,0.00,,Overcast,0,2013-12-24 05:53:00
9:53 PM,30.9,28.0,89,30.02,10.0,Calm,Calm,-,N/A,,Overcast,0,2013-12-24 06:53:00
10:53 PM,30.9,28.0,89,30.04,10.0,East,3.5,-,N/A,,Overcast,100,2013-12-24 07:53:00
11:53 PM,30.9,28.9,92,30.07,10.0,Calm,Calm,-,N/A,,Overcast,0,2013-12-24 08:53:00